• In Uzbekistan
  • List of Countries
  • For 7 days
  • Water Temperature
  • Satellite Maps
  • Weather Map
  • Weather Widgets
  • user-avatar
    Login

    Hourly Weather Shusha

    Today, 27 July, Thursday

    Time Temperature Precipitation Wind Pressure Humidity
    00:00 +20°C° 0.1 mm 2 mps 658 mmHg 62%
    01:00 +20°C° 0 mm 2 mps 658 mmHg 62%
    02:00 +21°C° 0 mm 1 mps 658 mmHg 62%
    03:00 +21°C° 0 mm 1 mps 658 mmHg 63%
    04:00 +21°C° 0 mm 1 mps 658 mmHg 63%
    05:00 +21°C° 0 mm 1 mps 659 mmHg 62%
    06:00 +21°C° 0 mm 2 mps 659 mmHg 62%
    07:00 +24°C° 0 mm 2 mps 660 mmHg 54%
    08:00 +26°C° 0 mm 2 mps 660 mmHg 47%
    09:00 +27°C° 0 mm 2 mps 661 mmHg 40%
    10:00 +28°C° 0 mm 2 mps 661 mmHg 38%
    11:00 +30°C° 0 mm 3 mps 661 mmHg 36%
    12:00 +31°C° 0 mm 3 mps 661 mmHg 33%
    13:00 +31°C° 0.1 mm 3 mps 661 mmHg 32%
    14:00 +33°C° 0.1 mm 3 mps 661 mmHg 31%
    15:00 +33°C° 0.1 mm 4 mps 661 mmHg 31%
    16:00 +31°C° 0.1 mm 3 mps 660 mmHg 33%
    17:00 +30°C° 0.1 mm 3 mps 660 mmHg 35%
    18:00 +30°C° 0.1 mm 3 mps 660 mmHg 38%
    19:00 +28°C° 0 mm 3 mps 660 mmHg 42%
    20:00 +26°C° 0 mm 2 mps 660 mmHg 46%
    21:00 +24°C° 0 mm 2 mps 660 mmHg 50%
    22:00 +23°C° 0 mm 2 mps 660 mmHg 48%
    23:00 +23°C° 0 mm 2 mps 660 mmHg 49%

    Tomorrow, 28 July, Friday

    Time Temperature Precipitation Wind Pressure Humidity
    00:00 +21°C° 0 mm 2 mps 660 mmHg 50%
    01:00 +21°C° 0 mm 2 mps 660 mmHg 50%
    02:00 +21°C° 0 mm 2 mps 659 mmHg 50%
    03:00 +20°C° 0 mm 2 mps 659 mmHg 49%
    04:00 +21°C° 0 mm 2 mps 660 mmHg 48%
    05:00 +21°C° 0 mm 2 mps 660 mmHg 47%
    06:00 +23°C° 0 mm 1 mps 660 mmHg 46%
    07:00 +25°C° 0 mm 2 mps 660 mmHg 40%
    08:00 +27°C° 0 mm 2 mps 661 mmHg 35%
    09:00 +29°C° 0 mm 2 mps 661 mmHg 29%
    10:00 +30°C° 0 mm 2 mps 661 mmHg 27%
    11:00 +33°C° 0 mm 3 mps 661 mmHg 25%
    12:00 +34°C° 0 mm 3 mps 661 mmHg 23%
    13:00 +34°C° 0 mm 3 mps 661 mmHg 23%
    14:00 +35°C° 0 mm 3 mps 661 mmHg 22%
    15:00 +36°C° 0 mm 3 mps 660 mmHg 21%
    16:00 +35°C° 0 mm 3 mps 660 mmHg 24%
    17:00 +34°C° 0 mm 3 mps 660 mmHg 26%
    18:00 +32°C° 0 mm 2 mps 659 mmHg 28%
    19:00 +30°C° 0 mm 2 mps 659 mmHg 32%
    20:00 +27°C° 0 mm 2 mps 659 mmHg 35%
    21:00 +25°C° 0 mm 2 mps 659 mmHg 39%
    22:00 +25°C° 0 mm 2 mps 659 mmHg 40%
    23:00 +24°C° 0 mm 2 mps 659 mmHg 40%

    Day after tomorrow, 29 July, Saturday

    Time Temperature Precipitation Wind Pressure Humidity
    00:00 +24°C° 0 mm 2 mps 659 mmHg 40%
    01:00 +24°C° 0 mm 2 mps 659 mmHg 40%
    02:00 +23°C° 0 mm 2 mps 659 mmHg 40%
    03:00 +23°C° 0 mm 2 mps 659 mmHg 41%
    04:00 +23°C° 0 mm 2 mps 659 mmHg 40%
    05:00 +24°C° 0 mm 2 mps 659 mmHg 40%
    06:00 +24°C° 0 mm 2 mps 659 mmHg 40%
    07:00 +26°C° 0 mm 2 mps 660 mmHg 35%
    08:00 +29°C° 0 mm 2 mps 660 mmHg 31%
    09:00 +31°C° 0 mm 2 mps 661 mmHg 27%
    10:00 +32°C° 0 mm 2 mps 661 mmHg 25%
    11:00 +34°C° 0 mm 3 mps 661 mmHg 24%
    12:00 +36°C° 0 mm 3 mps 661 mmHg 22%
    13:00 +36°C° 0 mm 3 mps 660 mmHg 21%
    14:00 +36°C° 0 mm 3 mps 660 mmHg 21%
    15:00 +37°C° 0 mm 3 mps 660 mmHg 20%
    16:00 +36°C° 0 mm 3 mps 659 mmHg 23%
    17:00 +35°C° 0 mm 2 mps 659 mmHg 25%
    18:00 +34°C° 0 mm 2 mps 659 mmHg 27%
    19:00 +31°C° 0 mm 2 mps 659 mmHg 31%
    20:00 +29°C° 0 mm 2 mps 659 mmHg 35%
    21:00 +27°C° 0 mm 2 mps 659 mmHg 39%
    22:00 +26°C° 0 mm 2 mps 659 mmHg 40%
    23:00 +26°C° 0 mm 2 mps 659 mmHg 42%

    30 July, Sunday

    Time Temperature Precipitation Wind Pressure Humidity
    00:00 +25°C° 0 mm 2 mps 659 mmHg 44%
    01:00 +24°C° 0 mm 2 mps 659 mmHg 45%
    02:00 +24°C° 0 mm 2 mps 660 mmHg 46%
    03:00 +23°C° 0 mm 2 mps 660 mmHg 46%
    04:00 +24°C° 0 mm 2 mps 660 mmHg 47%
    05:00 +24°C° 0 mm 2 mps 660 mmHg 47%
    06:00 +24°C° 0 mm 1 mps 661 mmHg 47%
    07:00 +26°C° 0 mm 2 mps 661 mmHg 44%
    08:00 +28°C° 0 mm 2 mps 662 mmHg 41%
    09:00 +29°C° 0 mm 3 mps 662 mmHg 37%
    10:00 +30°C° 0 mm 3 mps 662 mmHg 35%
    11:00 +31°C° 0 mm 3 mps 662 mmHg 33%
    12:00 +34°C° 0 mm 3 mps 662 mmHg 31%
    13:00 +34°C° 0 mm 4 mps 662 mmHg 30%
    14:00 +34°C° 0 mm 4 mps 662 mmHg 30%
    15:00 +35°C° 0 mm 4 mps 662 mmHg 30%
    16:00 +34°C° 0 mm 4 mps 662 mmHg 33%
    17:00 +33°C° 0 mm 4 mps 661 mmHg 36%
    18:00 +32°C° 0 mm 4 mps 661 mmHg 39%
    19:00 +29°C° 0 mm 4 mps 661 mmHg 45%
    20:00 +27°C° 0 mm 3 mps 661 mmHg 51%
    21:00 +25°C° 0 mm 2 mps 662 mmHg 57%
    22:00 +24°C° 0 mm 2 mps 662 mmHg 58%
    23:00 +24°C° 0 mm 2 mps 662 mmHg 59%

    31 July, Monday

    Time Temperature Precipitation Wind Pressure Humidity
    00:00 +23°C° 0 mm 2 mps 662 mmHg 60%
    01:00 +23°C° 0 mm 2 mps 662 mmHg 61%
    02:00 +22°C° 0 mm 1 mps 662 mmHg 62%
    03:00 +22°C° 0 mm 1 mps 662 mmHg 63%
    04:00 +22°C° 0 mm 1 mps 662 mmHg 62%
    05:00 +23°C° 0 mm 1 mps 663 mmHg 61%
    06:00 +23°C° 0 mm 2 mps 663 mmHg 59%
    07:00 +25°C° 0 mm 3 mps 664 mmHg 54%
    08:00 +26°C° 0 mm 4 mps 664 mmHg 48%
    09:00 +28°C° 0 mm 5 mps 665 mmHg 42%
    10:00 +29°C° 0 mm 5 mps 665 mmHg 39%
    11:00 +30°C° 0 mm 5 mps 665 mmHg 37%
    12:00 +32°C° 0 mm 5 mps 664 mmHg 34%
    13:00 +32°C° 0 mm 5 mps 664 mmHg 34%
    14:00 +33°C° 0 mm 6 mps 664 mmHg 34%
    15:00 +33°C° 0 mm 6 mps 663 mmHg 34%
    16:00 +32°C° 0 mm 6 mps 663 mmHg 37%
    17:00 +29°C° 0 mm 5 mps 663 mmHg 41%
    18:00 +28°C° 0 mm 5 mps 663 mmHg 45%
    19:00 +26°C° 0 mm 4 mps 663 mmHg 51%
    20:00 +24°C° 0 mm 3 mps 663 mmHg 57%
    21:00 +23°C° 0 mm 2 mps 663 mmHg 64%
    22:00 +21°C° 0 mm 2 mps 663 mmHg 65%
    23:00 +21°C° 0 mm 2 mps 663 mmHg 67%

    1 August, Tuesday

    Time Temperature Precipitation Wind Pressure Humidity
    00:00 +20°C° 0 mm 2 mps 663 mmHg 69%
    01:00 +20°C° 0 mm 2 mps 663 mmHg 69%
    02:00 +20°C° 0 mm 1 mps 663 mmHg 70%
    03:00 +20°C° 0 mm 1 mps 663 mmHg 70%
    04:00 +21°C° 0 mm 1 mps 663 mmHg 68%
    05:00 +21°C° 0 mm 1 mps 663 mmHg 66%
    06:00 +21°C° 0 mm 1 mps 664 mmHg 64%
    07:00 +23°C° 0 mm 2 mps 664 mmHg 58%
    08:00 +25°C° 0 mm 3 mps 665 mmHg 51%
    09:00 +27°C° 0 mm 3 mps 665 mmHg 44%
    10:00 +28°C° 0 mm 4 mps 665 mmHg 41%
    11:00 +29°C° 0 mm 4 mps 665 mmHg 38%
    12:00 +30°C° 0 mm 4 mps 665 mmHg 35%
    13:00 +32°C° 0 mm 4 mps 664 mmHg 35%
    14:00 +32°C° 0 mm 4 mps 664 mmHg 35%
    15:00 +32°C° 0 mm 4 mps 664 mmHg 34%
    16:00 +30°C° 0 mm 4 mps 664 mmHg 37%
    17:00 +29°C° 0 mm 4 mps 663 mmHg 39%
    18:00 +28°C° 0 mm 4 mps 663 mmHg 42%
    19:00 +26°C° 0 mm 3 mps 663 mmHg 47%
    20:00 +24°C° 0 mm 3 mps 663 mmHg 52%
    21:00 +23°C° 0 mm 2 mps 663 mmHg 57%
    22:00 +21°C° 0 mm 2 mps 663 mmHg 58%
    23:00 +20°C° 0 mm 2 mps 663 mmHg 60%
    Show more